Trang Airport
VTST : now visible

Airfield :











YOU CAN JOIN US ON...

 
LOGIN :

Register | Disclaimer

   EN    FR    IT 

 









Legend :    VFR   Marginal VFR   IFR   Intensive IFR   Very Intensive IFR
Visi :
Ceiling :
>= 8 km
>= 3000ft
5 to 8 km
1000 to 3000 ft
1500m to 5 km
500 to 1000 ft
800 to 1500m
200 to 500 ft
< 800m
< 200 ft
Symbols :   Thunderstorms  Fog  Heavy snow  Heavy precipitations  Wind > 20 kt






- Airport Elevation : 67 ft
- IATA code : TST


VTST - Trang

CURRENT METAR :
  • 020700Z 05009KT 010V090 9999 FEW030 34/16 Q1009 NOSIG

EXPIRED METARs :
  • 020600Z 05010KT 320V090 9999 FEW030 35/13 Q1009 NOSIG
  • 020500Z 04006KT 310V080 9999 FEW030 35/13 Q1011 NOSIG
  • 020400Z 05007KT 360V090 9999 FEW030 33/15 Q1011 NOSIG
  • 020300Z VRB04KT 9999 FEW030 31/18 Q1011 NOSIG

TAF TAF VTST
Valid from the 02 at 06:00 until the 03 at 06:00 UTC


020500Z 0206/0306 06006KT 9999 SCT030
VTBB FIR / Asia



MET'MAP, your aeronautical weather chart ! - Copyright ORBIFLY December 2007 - Disclaimer

ORBIFLY MET'MAP TEAM :

Programming & Development : Alexandra Zaïnal
Original concept : Baudouin d'Aumeries
Technical & hardware support : Manuel Goepfert
Assistance : Marc-Olivier Méhu




SOURCES & CREDITS :

   NOAA       Earth
Advisory